Theta_e
328 329 328 328 331 330 329 329 329 330 329 328 327 327 326 327 328 328 328 327 328 328 328 328 329 330 330 330 330 331 331 331 331 330 328 327 327 328 328 328 327 326 325 324 323 323 322 322 323 324 325 324 323 322 320 320 319 319 317 315 315 315 315 316 317 317 317 317 317 317 317 317 317 317
328 329 328 327 328 328 328 327 327 328 328 328 328 327 328 328 328 328 328 329 329 329 328 328 328 328 328 329 330 331 331 331 331 330 329 328 328 328 328 328 328 327 326 324 323 323 323 324 325 326 326 326 325 324 323 322 320 319 318 317 316 315 315 316 317 317 317 317 317 317 317 317 317 317
328 329 328 327 325 326 326 326 326 326 327 327 327 328 328 328 328 329 330 330 329 329 329 328 328 328 328 328 328 329 329 329 330 330 331 331 331 330 329 329 328 328 327 325 323 323 323 324 325 326 326 326 326 325 323 323 322 320 319 318 317 317 316 316 317 316 317 317 317 317 317 317 317 317
327 328 328 326 324 324 326 326 326 326 326 326 327 327 327 327 328 329 330 330 328 327 328 327 327 328 328 327 327 327 326 326 328 329 330 330 330 330 330 329 328 328 328 327 325 324 324 324 325 326 326 326 326 325 325 324 323 322 321 320 319 319 318 318 317 317 317 317 317 317 317 317 317 317
325 326 326 324 322 323 324 324 324 325 325 325 325 325 325 325 326 328 329 329 327 325 326 325 325 326 327 326 326 326 325 325 326 327 327 327 328 329 329 329 328 328 329 329 327 325 324 324 325 325 325 326 326 326 326 325 325 324 323 322 322 322 321 320 319 319 318 318 317 317 317 317 317 317
323 325 325 323 321 322 323 323 323 323 322 323 323 323 324 324 324 326 328 329 328 325 324 325 326 326 326 325 325 325 325 325 326 326 327 327 327 327 328 328 328 328 329 329 328 327 325 324 325 325 325 325 325 326 326 326 325 324 323 323 323 323 322 321 320 320 320 319 318 318 318 318 318 318
322 323 323 322 321 322 324 324 324 323 322 323 323 324 324 324 325 327 330 331 331 329 327 327 327 327 327 327 326 326 325 325 326 326 326 326 326 326 326 326 327 327 328 328 328 327 326 325 325 326 326 326 325 325 325 326 325 325 324 323 323 323 323 322 321 320 319 319 318 319 319 318 318 319
321 321 321 321 321 323 326 327 326 324 323 323 323 323 324 325 327 329 332 334 334 334 332 329 328 330 330 330 329 329 328 328 328 327 326 327 326 326 326 325 325 326 327 327 327 327 326 325 325 326 326 326 325 325 325 325 326 326 325 324 323 323 322 322 321 320 318 317 316 317 318 318 318 318
319 320 320 320 322 326 328 328 327 325 324 323 323 324 326 328 330 331 332 333 334 335 334 331 331 331 331 332 332 331 330 330 330 329 327 327 326 326 326 326 326 326 326 326 326 326 325 324 324 324 325 324 323 323 323 324 325 325 325 324 324 323 322 321 320 319 318 317 315 315 317 319 319 319
318 319 320 320 323 326 327 327 327 326 324 324 325 326 328 330 332 333 333 334 335 335 335 333 333 332 332 333 333 332 332 332 331 330 328 327 327 327 327 327 326 326 326 326 326 325 325 325 324 324 323 322 322 322 322 323 323 323 324 324 324 324 322 321 319 318 317 316 315 314 315 317 319 319
318 319 321 320 321 324 326 327 327 327 327 328 327 327 329 331 333 334 333 333 334 334 333 333 332 331 332 332 332 332 333 334 333 331 330 328 326 326 327 327 326 326 326 326 326 326 326 326 325 324 323 322 321 321 321 322 322 322 322 322 322 322 321 320 319 318 318 316 315 315 316 317 318 319
318 319 321 320 319 322 325 327 327 329 330 330 329 328 330 333 334 334 334 333 333 333 333 332 332 332 332 331 331 331 332 333 332 330 330 330 327 325 326 326 327 327 327 327 327 327 327 326 326 326 324 322 322 321 320 321 321 320 320 320 320 320 320 319 319 319 319 318 317 316 316 317 317 318
318 319 320 320 320 321 323 327 329 330 331 332 332 332 333 334 334 335 335 335 334 334 333 333 333 333 333 332 331 331 331 332 331 329 330 329 328 326 327 327 328 328 328 328 328 327 327 326 326 326 324 323 321 321 321 321 321 321 321 321 320 320 320 319 319 319 319 319 319 318 318 318 319 319
319 319 319 320 321 322 324 326 327 328 331 335 335 335 335 336 335 335 335 334 334 334 334 334 334 334 333 333 332 332 332 332 332 331 330 329 328 328 328 328 329 329 329 329 329 328 327 327 326 325 324 322 321 321 321 321 321 322 322 321 321 321 320 320 320 320 320 320 320 320 320 321 321 322
319 319 320 319 320 324 326 325 326 329 334 336 336 336 336 336 336 335 335 335 335 334 334 334 334 334 334 333 333 333 333 334 334 333 331 330 329 329 329 329 329 330 330 329 329 328 327 327 325 324 322 321 321 321 322 322 322 322 322 322 321 320 320 320 321 321 321 321 322 322 322 322 322 322
320 319 319 319 321 324 326 327 331 334 335 336 336 336 336 336 335 335 334 334 334 334 335 335 334 334 334 334 334 334 334 334 334 333 332 331 331 330 330 330 330 330 330 330 329 328 327 326 324 323 322 321 322 322 322 322 321 321 321 321 321 321 320 321 321 321 321 322 322 322 322 322 321 321
321 320 320 321 322 322 326 332 335 334 334 337 337 337 336 335 333 332 331 329 330 331 332 333 334 334 334 334 334 334 334 334 334 333 332 331 331 331 330 330 330 330 329 329 328 328 327 325 323 322 322 322 322 322 322 321 320 320 320 320 320 320 320 320 321 321 321 321 321 321 321 321 321 321
322 322 321 322 322 323 330 335 335 332 334 338 337 337 335 333 330 329 327 326 326 326 326 330 334 335 334 334 334 333 333 334 333 332 331 331 330 329 329 329 329 328 328 328 327 327 325 324 323 323 323 323 322 321 320 320 319 320 320 320 320 320 321 321 321 322 322 321 321 320 320 320 320 319
322 324 324 324 325 328 334 336 333 332 334 336 336 336 333 330 327 324 323 324 324 323 325 329 334 335 334 333 333 332 331 332 331 330 330 330 329 328 328 328 327 327 327 327 326 326 325 324 324 324 323 322 321 321 320 320 319 320 321 320 320 320 320 320 320 320 320 319 319 319 319 319 318 317
323 326 327 328 329 333 338 339 335 333 333 332 332 331 328 327 326 323 322 323 323 323 326 330 333 333 332 331 330 328 328 329 329 329 329 328 327 327 328 327 327 327 326 326 326 325 325 324 323 323 322 321 321 321 320 320 320 320 320 320 320 319 319 319 319 318 318 317 317 317 316 315 313 311
325 331 332 332 332 334 337 336 333 330 328 327 326 326 325 324 324 323 322 323 324 327 329 332 332 332 331 330 328 327 327 327 327 327 327 326 325 326 327 327 327 326 326 325 325 324 324 323 322 322 321 321 321 321 321 320 320 320 320 319 319 318 317 315 314 313 313 313 312 313 313 313 313 314
329 334 335 335 335 336 334 329 325 323 323 323 325 326 325 323 323 323 323 324 328 330 331 332 333 332 330 329 328 327 327 327 326 326 326 325 325 326 326 326 326 326 325 325 324 323 323 322 321 321 321 320 320 320 320 319 319 318 317 315 313 312 311 311 311 312 313 313 315 316 317 317 318 319
325 329 333 336 336 336 333 325 321 321 322 324 326 326 324 323 323 323 326 329 331 330 331 332 332 331 330 329 328 327 327 327 326 325 325 325 325 326 326 326 325 324 324 324 323 322 321 321 320 319 318 318 318 318 318 317 316 314 312 311 310 311 312 314 315 316 316 317 318 318 319 319 318 318
325 326 332 336 335 334 330 324 320 320 322 325 326 325 324 324 323 325 329 333 333 331 332 333 331 330 329 328 327 327 327 327 326 325 325 325 325 325 325 325 324 323 322 322 321 320 319 318 318 317 317 316 316 315 315 313 311 310 311 312 314 314 315 315 316 316 317 317 318 318 318 317 317 316
328 328 334 336 333 330 325 321 320 321 322 326 327 325 324 323 323 327 332 334 334 334 334 332 330 329 328 327 326 326 326 326 325 325 325 325 325 324 324 323 322 322 321 320 319 317 316 316 316 316 315 314 314 313 312 311 310 312 313 314 315 314 315 315 316 316 317 317 318 318 317 317 316 316
327 330 336 335 328 324 322 321 321 321 323 326 326 323 323 324 328 333 335 335 334 333 332 329 328 327 326 326 326 326 325 325 325 324 324 324 323 323 322 321 321 320 319 317 316 315 315 315 314 313 313 312 311 311 311 312 312 312 312 312 312 313 314 315 316 317 317 317 317 318 318 317 316 316
324 329 331 328 323 323 322 322 321 323 326 326 324 323 327 331 335 336 334 333 332 330 328 326 325 324 325 325 325 325 324 324 324 323 323 322 321 321 320 320 318 316 315 314 314 314 313 312 311 310 310 310 310 310 310 310 310 309 309 309 310 312 314 316 316 316 317 317 317 317 317 317 316 316
321 324 325 324 325 325 324 323 324 326 327 325 324 328 332 334 334 332 330 328 327 325 324 323 323 324 324 324 323 322 322 322 322 321 321 320 320 319 318 317 315 313 313 313 312 311 309 309 309 309 309 309 309 309 308 308 308 308 308 310 312 314 315 316 316 316 317 317 317 317 317 316 316 316
322 325 326 327 326 325 325 326 327 327 326 327 329 332 333 331 329 327 324 323 322 322 322 322 322 322 322 321 320 318 318 318 318 318 318 318 318 317 315 314 312 312 311 310 309 308 308 308 309 309 308 308 307 307 307 308 309 310 312 313 315 316 316 316 316 317 317 317 317 317 316 316 315 315
328 330 329 326 325 325 327 327 326 326 328 331 333 332 329 326 324 322 322 322 322 322 322 321 320 319 318 318 317 317 317 317 317 317 317 316 315 313 312 311 310 309 308 307 307 308 308 308 308 307 307 307 307 307 308 309 311 313 314 315 316 316 316 316 317 317 317 317 317 316 316 315 315 315
331 331 329 326 325 326 326 325 326 330 332 332 330 327 325 324 323 323 324 324 323 322 321 320 320 318 317 317 317 317 317 317 317 316 315 314 312 311 310 309 308 307 306 307 308 308 308 307 307 306 306 307 308 309 310 312 313 315 315 316 316 317 317 317 317 317 316 316 316 315 315 315 315 314
333 332 329 326 324 324 326 329 332 333 331 329 327 325 324 325 325 325 325 324 323 322 321 320 319 318 318 318 318 317 317 317 316 315 313 312 311 310 309 308 307 307 307 307 308 308 307 307 306 306 308 309 310 312 313 314 315 315 316 316 316 317 317 316 316 315 315 314 314 314 314 314 314 314
334 331 328 325 324 326 330 333 333 330 328 327 326 326 326 326 326 325 325 324 323 321 320 320 319 319 319 318 317 317 316 315 314 313 312 311 310 309 308 307 307 307 307 307 307 307 306 306 306 308 310 311 313 314 314 314 315 315 316 316 316 316 317 316 316 315 314 314 314 314 314 314 314 314
331 328 326 326 327 329 332 331 328 326 326 327 326 326 327 327 326 325 324 322 321 320 320 320 319 319 319 318 317 316 315 314 313 313 311 310 308 308 307 307 307 307 307 307 307 307 306 306 307 309 312 313 314 314 314 314 315 316 315 316 316 316 316 316 315 315 314 314 314 314 314 314 313 313
328 327 327 327 328 329 329 328 326 325 325 326 326 326 327 327 326 324 323 321 321 320 320 319 319 319 318 317 316 315 314 314 313 311 309 307 307 307 307 306 307 306 306 307 307 307 307 306 307 309 311 312 313 313 313 314 315 315 315 315 316 316 316 316 315 314 313 313 313 313 313 313 312 312
327 328 327 326 326 327 326 326 325 324 324 325 326 327 327 326 324 323 322 321 321 321 321 320 320 318 317 316 315 314 313 312 310 308 306 306 306 306 306 306 306 306 306 307 307 307 307 306 307 308 309 309 310 311 312 314 314 315 315 316 316 316 315 314 313 313 313 312 312 311 311 311 311 311
328 328 326 325 325 326 326 325 324 323 324 326 327 326 325 324 323 322 322 321 321 321 321 320 318 316 315 314 313 311 309 308 307 306 306 306 306 306 306 305 305 306 307 307 307 307 307 306 307 307 307 307 308 309 312 314 315 315 315 316 316 315 313 313 313 312 311 310 309 309 309 309 310 311
327 327 327 327 327 326 325 324 323 324 325 326 326 325 324 324 323 321 320 319 319 319 318 317 316 315 314 313 311 309 307 306 306 306 306 306 306 305 305 305 305 306 306 307 307 306 306 306 306 307 307 307 307 309 312 315 315 315 315 315 314 312 312 312 312 310 309 308 308 308 308 308 309 311
328 329 329 328 326 324 323 323 324 325 325 325 324 324 323 322 321 319 318 317 317 317 316 315 314 314 313 312 310 308 306 305 305 306 306 305 305 305 305 305 305 306 307 307 306 305 305 306 307 307 308 309 310 312 314 315 315 315 314 313 312 311 311 311 309 308 307 307 307 308 308 309 310 311
331 331 328 325 322 322 323 324 324 323 323 323 322 321 321 320 319 318 317 317 316 315 315 314 314 313 312 311 310 307 306 305 305 305 305 304 304 304 304 304 305 306 307 306 305 304 306 307 307 309 311 312 313 314 315 315 314 314 313 312 311 311 309 308 307 306 306 307 307 308 308 309 310 311
330 327 324 321 321 323 324 324 323 322 322 321 321 320 320 319 319 318 317 316 315 315 314 314 313 312 312 310 309 307 306 305 305 305 304 303 304 304 304 304 305 306 306 305 304 305 306 307 309 311 313 313 313 314 314 314 314 313 312 312 312 310 309 307 306 306 306 306 307 307 308 308 310 311
326 323 321 321 322 323 323 322 322 321 320 320 320 319 319 318 318 317 316 315 315 314 314 313 312 311 310 309 308 306 305 304 304 304 303 303 303 303 303 305 306 306 305 304 304 305 307 308 311 313 313 312 313 314 314 313 313 312 312 312 311 311 310 308 307 306 306 306 306 307 307 308 309 310
323 322 322 322 322 322 322 322 321 320 319 318 318 318 318 317 317 316 316 315 315 314 313 311 310 309 308 307 306 305 304 303 303 303 302 302 302 302 303 305 305 304 304 304 305 306 307 310 313 313 312 311 312 313 313 312 312 311 311 311 311 311 311 310 308 308 308 307 307 307 307 308 308 309
323 323 322 322 322 322 321 320 319 317 317 317 317 316 316 315 315 315 314 314 313 312 311 309 307 307 306 306 306 305 304 304 302 301 300 301 301 301 303 304 304 304 304 305 306 306 308 311 313 313 312 311 312 313 312 312 311 311 311 310 310 310 310 310 309 309 309 308 308 309 310 310 310 309
324 323 323 322 322 321 320 318 316 315 315 315 315 313 312 312 312 312 312 312 311 311 309 307 307 306 306 306 306 305 304 303 301 299 299 298 299 301 304 304 304 304 304 305 305 306 307 311 313 312 311 311 312 312 312 311 311 310 310 310 310 309 308 307 306 306 307 308 308 309 310 311 310 310
Wind_Speed
18 17 17 17 16 14 13 13 13 12 12 11 11 11 10 10 10 11 12 12 11 10 10 9 10 10 10 10 9 9 10 12 14 16 17 16 14 14 14 13 11 10 10 11 13 14 14 14 14 13 14 14 14 15 15 16 16 17 17 16 15 15 15 15 15 15 14 14 14 14 15 15 15 15
19 18 18 18 17 16 15 15 14 13 12 12 11 11 11 11 11 12 12 13 11 9 9 9 10 10 10 11 11 11 13 14 16 17 17 16 15 15 15 13 11 11 12 12 13 13 13 13 12 12 13 13 13 14 14 15 16 17 17 17 17 17 17 16 16 16 16 16 15 15 15 15 16 16
21 19 19 18 18 18 18 17 16 14 13 13 13 12 12 12 12 12 13 14 12 9 8 8 9 10 11 12 13 14 16 17 17 17 17 17 17 17 16 15 14 14 13 13 13 12 11 11 11 11 12 13 14 14 14 15 16 16 16 17 18 18 18 18 18 18 18 18 17 17 17 17 16 17
22 21 20 19 18 18 19 18 16 15 14 14 13 13 13 13 13 13 13 15 13 9 9 10 10 10 12 13 14 15 16 16 16 17 18 19 19 19 18 17 17 16 15 15 14 12 11 10 10 11 11 12 13 14 15 15 16 15 15 15 16 17 18 19 19 19 19 19 20 19 19 18 18 18
23 23 21 20 18 18 18 17 16 15 14 14 14 14 14 14 13 13 14 15 14 11 10 11 11 10 11 12 12 13 14 14 14 16 16 17 18 19 20 20 19 19 18 17 16 15 14 13 12 12 13 13 13 14 15 16 16 16 15 15 15 16 17 18 19 19 19 20 20 21 21 21 20 20
24 23 22 21 19 18 18 16 16 15 14 14 14 13 13 12 12 12 13 15 16 14 10 11 12 11 12 13 12 12 13 13 13 14 14 14 15 17 19 20 21 20 20 19 18 18 17 16 15 15 16 16 16 16 17 17 17 17 17 17 17 18 18 18 18 18 18 18 19 20 21 21 21 21
24 23 22 21 20 20 19 17 15 15 14 14 14 13 12 12 12 12 13 14 16 17 15 14 14 14 14 14 13 13 14 14 14 14 14 14 15 16 18 19 20 20 20 20 20 20 19 18 18 17 18 18 19 19 19 19 19 18 18 19 18 18 18 19 19 18 17 18 18 19 19 20 20 21
24 23 22 21 20 20 19 17 15 15 15 15 14 13 12 13 13 13 14 15 17 19 19 18 17 17 16 17 16 15 15 14 14 15 15 15 16 16 16 17 18 17 18 19 20 20 20 19 19 19 19 20 20 21 21 21 22 22 21 20 19 18 17 18 19 19 19 20 21 21 21 21 21 21
23 24 23 21 20 21 20 18 17 16 16 15 15 14 13 13 14 14 15 16 17 19 21 20 19 18 19 19 18 17 16 16 16 16 16 16 16 17 17 17 16 15 16 17 18 20 20 20 20 19 20 20 20 20 20 21 22 22 22 21 19 18 18 19 20 22 23 24 24 24 23 23 23 23
23 24 24 22 22 22 21 19 18 17 17 16 15 15 14 13 14 15 15 16 17 19 21 21 21 21 21 21 21 19 19 20 20 20 19 19 19 19 19 18 17 17 17 18 18 20 20 20 20 19 19 20 20 20 20 20 20 21 21 21 21 21 21 22 24 25 26 26 25 25 25 25 24 24
24 24 23 22 23 24 23 20 19 18 17 16 16 15 14 13 14 14 14 15 17 19 21 22 23 23 22 23 23 23 22 23 24 24 24 23 22 21 21 21 21 20 20 20 20 21 21 21 21 21 21 21 21 22 21 21 22 22 23 24 24 25 26 27 27 27 27 26 26 26 26 25 25 25
25 24 24 23 22 23 23 21 19 18 17 16 15 14 13 13 13 14 15 16 17 18 21 23 24 24 25 25 25 25 26 27 27 26 26 26 26 25 24 24 23 23 23 23 23 23 23 24 24 24 24 23 23 23 23 23 24 25 26 27 27 28 28 28 28 28 27 26 25 26 26 25 24 24
26 25 25 24 23 22 23 22 20 18 16 14 14 12 11 12 13 15 16 18 18 19 21 23 24 25 27 27 27 27 28 28 28 27 27 28 28 27 27 27 26 25 25 25 25 25 25 25 26 27 27 25 24 24 24 25 26 28 28 29 29 28 27 27 26 25 24 22 21 21 21 21 21 21
27 26 26 26 24 23 23 22 20 17 14 13 13 12 12 14 15 16 18 19 19 19 21 23 24 26 29 29 28 28 28 29 29 29 28 29 29 28 29 29 28 27 26 26 26 26 26 27 28 28 28 27 25 24 26 27 28 29 28 27 25 24 24 23 23 22 20 18 17 17 17 18 19 20
26 27 27 26 25 24 23 21 18 16 15 14 14 14 15 16 17 18 19 19 19 20 21 23 24 26 29 29 28 29 30 30 30 30 30 30 30 29 30 31 31 29 28 28 28 28 28 29 29 28 27 26 25 26 27 28 27 25 23 22 21 20 20 20 19 19 18 18 18 18 19 20 22 23
28 28 28 27 26 25 23 21 19 18 17 16 16 17 17 18 17 18 18 19 19 20 22 23 25 27 29 29 29 31 31 31 31 30 30 29 29 29 30 31 32 30 29 29 30 30 28 27 28 28 26 26 26 26 25 25 23 22 22 21 20 18 18 18 18 19 20 21 22 23 23 24 25 26
30 30 29 28 27 24 22 22 21 19 18 17 18 18 18 18 17 17 17 17 17 19 21 23 26 27 28 29 30 31 31 31 31 29 27 26 26 27 28 29 28 27 26 27 29 29 27 25 27 29 27 26 25 23 22 22 22 22 22 22 21 20 20 20 21 22 23 24 25 26 27 28 28 30
30 30 29 28 26 24 22 22 21 20 19 19 20 19 19 19 17 15 17 17 17 18 20 23 26 27 28 29 30 30 30 30 30 28 25 24 24 26 26 26 25 24 23 24 26 29 27 25 27 29 28 26 24 22 22 22 21 21 21 21 21 22 22 23 23 24 25 26 27 28 30 32 34 36
30 29 28 27 26 24 23 22 22 22 21 21 21 21 21 20 18 17 18 19 20 22 22 23 26 27 28 28 29 28 27 27 26 25 24 24 25 26 26 25 24 23 21 21 25 29 28 26 27 29 26 24 23 22 23 23 22 21 21 22 22 22 23 23 24 26 27 29 32 34 36 39 41 43
29 28 27 27 26 25 24 24 24 23 22 21 22 22 21 20 20 21 20 21 23 25 25 24 26 28 28 28 26 24 23 23 22 23 24 24 24 25 26 26 25 23 21 21 24 29 29 25 25 26 24 23 24 25 25 25 24 24 24 24 25 26 27 29 31 33 36 38 40 42 42 43 42 41
28 28 27 26 26 26 26 26 25 24 22 21 22 23 23 22 23 23 23 24 25 25 25 26 27 27 27 26 24 23 22 22 22 23 24 24 23 23 25 26 26 24 23 22 24 27 26 23 22 24 24 25 26 27 27 27 27 27 28 29 31 33 35 36 37 37 38 38 38 37 35 33 32 31
28 28 27 26 27 28 27 27 26 25 23 22 22 23 24 24 25 25 25 24 24 25 26 26 26 26 25 24 23 22 22 22 22 23 24 23 22 23 24 25 25 25 24 22 21 23 24 23 23 25 27 28 29 29 30 30 30 31 33 34 35 34 33 32 30 29 28 28 27 26 25 25 25 26
29 28 27 27 28 28 28 27 25 25 24 22 22 23 25 26 27 26 24 24 25 25 26 26 27 27 25 23 22 23 23 22 22 22 22 21 21 22 23 24 23 24 24 22 20 22 25 25 25 26 28 31 33 33 33 33 34 35 34 32 30 26 24 23 23 23 23 23 23 23 23 23 24 25
30 29 27 28 28 28 28 26 24 24 25 23 23 24 25 28 28 26 24 25 26 25 26 28 29 28 25 24 24 24 24 22 22 21 20 20 21 22 23 22 21 21 22 21 21 24 27 27 27 28 28 30 34 35 35 36 35 32 28 25 23 22 22 23 24 24 24 24 23 23 23 22 23 26
29 27 28 29 28 27 27 26 24 25 25 23 23 25 27 29 28 26 25 25 26 26 28 29 28 27 25 25 25 24 23 22 20 20 20 21 20 20 19 19 19 21 24 24 23 24 26 26 27 29 29 31 34 35 35 34 31 27 24 23 25 25 25 25 26 25 25 25 25 24 24 25 26 28
28 27 29 29 26 25 26 25 25 25 24 22 23 26 27 27 26 24 24 25 26 27 28 28 27 26 25 24 23 21 19 18 18 18 18 18 17 17 17 18 21 24 26 26 24 23 24 26 27 28 29 30 31 31 32 32 30 28 27 27 28 28 27 27 28 28 27 28 28 28 28 29 30 32
26 27 27 26 24 23 24 24 24 24 23 22 24 25 24 24 23 22 23 24 26 27 28 28 27 25 22 19 17 14 13 13 14 15 15 15 16 17 19 21 24 26 26 24 23 23 24 25 24 24 23 25 27 29 31 33 33 33 32 32 30 29 27 27 30 31 32 32 32 31 31 32 34 35
22 23 23 22 22 22 22 22 22 22 23 25 26 24 22 21 21 21 23 25 27 28 27 24 21 18 15 13 11 10 11 12 13 14 16 17 18 19 21 23 26 26 25 23 22 20 19 19 19 19 20 22 26 29 32 34 35 35 35 34 31 29 28 30 32 34 35 35 34 33 34 35 37 38
20 20 20 20 20 19 19 19 20 22 24 25 24 22 20 20 20 21 24 25 26 24 20 16 13 10 9 8 9 10 11 13 14 16 17 18 19 21 24 25 25 24 22 20 17 15 14 16 17 19 21 23 25 28 31 33 34 33 32 32 33 32 31 32 34 35 36 37 36 36 37 39 40 41
20 20 19 18 18 18 18 19 21 22 23 22 20 19 19 19 19 21 22 21 19 16 12 9 7 6 6 7 9 11 13 14 15 16 18 19 21 23 23 23 23 21 18 15 14 13 14 17 19 21 23 24 25 26 27 30 32 32 30 31 33 35 34 33 34 36 37 37 37 38 40 42 43 44
21 20 19 18 19 19 20 21 22 21 20 18 18 17 17 17 17 17 17 16 13 11 9 7 6 6 7 8 10 12 14 15 16 17 19 21 22 21 21 21 21 20 17 14 13 14 17 19 20 21 21 22 23 24 25 27 30 31 31 30 32 35 36 35 36 36 35 36 38 40 43 45 46 48
22 21 20 19 20 20 20 20 20 18 17 16 15 14 14 14 14 13 12 12 11 9 8 7 7 7 9 11 13 14 15 16 17 19 19 20 21 20 20 20 20 20 19 18 17 18 20 20 18 17 18 21 23 24 24 26 28 30 31 31 32 34 36 36 36 37 37 38 41 45 47 50 51 51
22 21 20 20 20 19 19 18 17 16 14 13 12 12 13 13 12 11 11 11 9 8 8 8 9 9 11 13 14 15 16 17 19 19 20 21 21 19 18 18 18 19 21 22 23 23 22 19 17 16 17 19 20 22 24 28 28 28 30 33 35 37 38 37 37 39 41 42 45 48 51 53 53 53
21 20 19 19 19 18 17 16 15 13 12 11 11 12 13 13 11 10 10 9 8 8 9 10 10 11 13 15 16 16 18 19 19 20 20 20 18 16 16 17 18 19 21 23 24 24 23 22 20 18 18 19 20 20 21 25 29 30 32 35 38 40 41 40 40 42 44 45 46 49 52 54 55 54
20 19 19 19 18 17 16 15 13 12 11 12 12 13 13 13 11 10 9 8 8 9 11 11 12 13 15 16 17 18 19 20 20 20 18 16 13 13 15 16 18 20 21 22 22 22 23 24 23 22 23 24 25 24 20 21 27 33 36 38 39 41 43 43 43 45 47 47 47 49 52 55 57 55
20 19 18 16 14 14 14 13 12 12 12 12 12 12 12 12 10 9 9 9 10 12 13 14 14 15 15 15 16 17 18 20 19 17 14 11 12 14 15 17 18 19 19 20 21 22 23 23 23 25 27 28 30 31 27 23 25 30 35 39 40 41 42 44 45 47 49 50 50 50 50 53 56 54
20 17 14 11 10 11 12 14 14 14 13 13 12 11 11 10 9 9 10 11 13 14 15 15 15 15 14 15 16 17 17 17 14 12 11 12 14 16 17 17 18 18 19 20 21 21 23 22 22 24 27 29 31 34 33 30 28 29 32 36 39 41 42 44 46 49 52 52 51 49 48 49 51 49
16 13 10 10 11 13 15 16 16 15 14 13 12 12 12 11 11 11 12 13 13 13 13 14 14 14 15 15 16 16 14 12 10 10 12 14 16 16 16 16 17 18 20 21 22 22 21 21 21 22 25 28 31 33 34 35 35 33 30 30 35 40 42 42 46 51 52 50 46 44 43 43 45 44
15 12 11 12 13 15 16 16 14 12 11 11 10 10 11 12 11 11 12 12 12 12 13 13 13 14 14 15 15 14 13 10 10 11 14 15 16 15 15 16 17 19 21 23 24 22 19 19 21 22 23 26 29 30 32 35 36 35 31 29 32 37 40 42 45 47 46 43 41 41 40 39 39 40
14 13 14 14 14 14 14 12 10 8 8 8 8 9 11 11 11 11 11 11 12 12 12 13 14 14 14 14 14 13 12 11 12 14 15 15 13 13 14 16 17 19 21 24 24 21 18 19 21 22 22 23 26 28 30 32 34 34 33 32 34 36 38 39 40 40 39 38 37 36 36 37 39 40
13 14 14 14 13 13 12 11 9 8 8 8 9 10 11 11 12 12 12 12 12 12 12 13 14 15 15 14 13 13 12 12 13 15 15 14 13 14 15 15 16 19 22 23 21 19 19 21 21 19 20 23 26 28 30 31 32 34 36 37 38 39 38 35 32 32 33 32 30 30 32 34 37 40
13 14 14 14 14 12 11 9 9 9 10 10 11 12 12 12 13 13 12 12 12 12 13 14 15 15 14 13 12 13 13 13 14 15 14 14 14 15 14 14 17 20 20 20 19 19 20 21 19 18 21 25 27 28 28 28 30 34 38 40 42 42 41 36 30 27 26 24 23 25 28 31 34 38
15 15 15 14 12 11 9 9 9 9 9 10 11 12 12 12 13 14 14 14 14 14 15 15 13 12 11 11 12 13 13 13 14 15 15 14 14 15 15 16 18 18 17 17 17 19 20 19 17 19 24 28 28 26 25 26 29 33 37 41 44 45 45 41 33 26 20 17 17 19 19 21 26 31
18 16 15 13 12 11 10 9 8 7 6 7 9 11 11 12 13 13 14 14 14 14 15 14 11 10 10 11 13 13 13 13 14 14 15 15 15 14 15 16 17 15 14 16 18 20 20 18 17 20 25 29 27 24 23 25 29 32 35 39 42 44 44 42 37 31 22 16 15 15 13 14 18 21
19 16 15 13 12 11 10 8 6 5 6 7 9 9 8 8 8 10 11 12 13 14 14 13 11 11 11 13 15 14 13 13 14 14 15 16 15 13 13 15 14 13 13 16 19 21 20 18 17 20 26 29 27 23 22 25 28 31 33 37 40 42 41 40 39 37 32 25 19 14 12 13 15 14
Wind_Direction
221 224 224 222 222 225 230 232 233 240 246 247 244 239 237 241 246 248 249 248 247 250 252 252 249 251 258 265 268 268 265 267 275 285 293 298 301 307 307 305 307 308 308 306 300 292 288 286 286 285 286 287 288 287 286 286 286 286 286 285 283 281 283 285 286 286 286 288 292 294 296 298 297 295
222 222 223 225 225 227 231 234 237 242 244 241 240 240 242 244 247 250 255 258 256 249 248 250 254 259 262 263 265 264 264 271 280 287 291 294 299 305 305 303 306 312 318 320 312 300 290 286 285 285 289 294 299 301 301 298 293 289 287 287 286 285 285 286 286 286 285 286 288 290 293 295 296 297
225 223 223 226 227 226 228 232 235 238 239 241 244 246 248 250 250 250 255 263 263 255 253 253 256 263 265 262 263 265 270 277 281 285 288 292 297 300 298 296 299 306 315 321 320 310 295 288 287 289 294 301 307 310 310 307 302 296 292 291 291 292 291 290 289 287 286 285 285 286 288 291 293 295
226 226 225 227 226 223 225 229 234 237 241 245 249 250 251 250 249 249 251 260 267 267 267 268 268 267 266 263 263 268 273 276 279 282 287 291 294 295 294 295 298 302 306 310 314 312 304 299 296 295 298 302 305 308 311 311 308 303 298 296 296 296 295 295 293 290 287 285 284 284 285 287 289 291
226 227 227 229 229 227 226 226 229 233 237 242 244 245 245 245 247 251 253 262 272 277 272 274 277 273 269 268 268 272 276 277 279 282 284 288 290 292 294 295 296 296 296 299 303 305 304 303 301 298 295 294 293 295 299 303 306 304 300 298 298 298 296 295 295 294 291 288 285 284 284 284 285 285
225 226 228 231 232 233 232 229 228 231 234 237 240 241 245 250 254 257 260 266 274 281 283 282 282 279 277 278 278 281 284 286 286 283 283 284 285 288 291 293 293 292 290 290 293 297 299 301 301 297 292 288 286 286 289 293 296 297 296 294 294 294 293 292 293 295 295 294 291 287 284 283 282 281
226 226 227 229 232 234 235 232 232 235 238 242 244 245 250 259 262 263 265 268 273 282 290 290 288 287 287 287 286 287 287 288 289 288 288 285 282 283 286 288 291 291 290 288 288 291 294 297 296 292 287 286 285 285 286 288 290 292 292 291 290 288 285 284 285 288 291 293 292 288 285 283 280 278
230 229 228 229 232 232 231 232 235 239 242 246 249 251 256 263 267 267 268 273 278 284 289 292 294 295 293 290 289 286 284 284 285 287 289 288 287 285 284 284 287 291 293 291 289 290 292 293 293 290 287 286 286 285 284 285 287 288 288 288 287 285 280 276 276 279 284 288 288 285 281 280 278 277
233 232 231 232 232 232 231 231 236 241 245 249 252 255 260 267 273 273 273 277 281 284 287 291 294 294 292 291 291 289 288 287 286 286 288 290 293 294 292 289 290 292 293 293 292 292 292 292 291 290 289 288 288 287 285 283 283 283 283 283 283 283 280 277 275 276 280 284 285 281 275 274 273 272
235 235 233 233 234 236 234 233 239 246 249 251 252 256 264 274 280 280 278 279 281 284 288 293 294 294 293 293 293 293 293 291 289 288 289 292 296 298 297 295 295 296 295 294 293 293 293 291 288 287 290 291 292 293 292 290 288 286 285 284 283 284 283 282 281 280 280 280 280 277 272 270 269 267
236 236 233 231 233 236 237 238 242 247 250 252 257 264 273 279 282 284 286 286 286 288 293 296 298 298 298 296 295 296 295 291 289 291 294 296 299 298 295 294 296 297 295 295 295 295 294 293 290 290 292 292 294 296 296 295 294 293 292 291 291 290 290 288 286 282 279 277 274 271 268 268 268 266
236 234 232 230 230 235 239 242 243 246 250 257 265 271 275 278 281 287 291 291 290 292 295 297 299 301 299 298 298 298 296 292 293 296 297 296 298 298 296 294 295 294 293 294 294 294 294 295 295 294 293 292 293 294 294 295 295 295 295 294 293 293 291 289 286 282 279 275 271 267 266 267 269 269
239 235 232 230 231 236 240 241 242 245 252 261 268 272 275 280 285 288 288 288 289 292 294 297 300 300 299 299 299 299 296 295 297 299 298 295 296 298 296 295 295 294 292 292 292 292 295 296 294 292 291 291 291 292 293 295 295 294 293 293 291 290 289 287 285 283 279 276 271 269 267 268 271 273
244 240 235 231 232 237 238 239 241 246 252 259 264 270 276 281 284 285 286 287 289 292 294 297 300 299 298 299 300 299 300 301 301 299 297 296 297 297 295 295 297 295 292 289 288 289 292 292 291 290 289 289 290 293 294 295 295 294 293 291 289 287 286 284 282 280 278 274 271 269 268 268 270 271
247 246 240 234 234 238 238 238 240 242 246 251 259 266 269 271 275 278 280 282 286 289 291 294 296 295 296 299 301 302 303 302 300 298 296 296 296 295 292 292 293 293 290 286 283 285 287 289 289 289 288 289 292 294 294 294 293 292 289 286 283 282 282 281 278 275 273 272 270 267 266 266 267 269
249 247 243 237 236 238 238 237 237 239 245 252 259 261 261 263 268 271 275 278 281 285 288 291 292 293 295 299 301 301 301 301 299 297 296 296 295 292 288 287 288 290 288 285 283 284 286 287 288 288 289 291 293 293 292 290 288 285 280 277 273 271 272 273 271 270 269 268 267 266 266 267 267 269
251 246 241 237 236 236 235 235 237 240 246 254 260 262 262 265 268 271 275 278 278 282 286 289 290 293 297 298 298 299 300 300 298 296 295 296 294 290 289 289 289 289 287 285 286 286 286 287 288 289 291 294 294 292 289 286 285 282 278 274 270 268 267 266 266 266 266 267 268 269 270 271 272 273
254 247 241 237 236 234 232 233 239 243 245 251 259 263 265 267 266 265 268 270 275 282 286 287 291 294 296 296 296 298 299 297 296 297 298 297 293 291 291 292 291 290 288 290 291 290 290 291 292 292 295 296 294 292 290 289 289 287 283 279 277 275 272 268 267 267 267 268 270 271 272 274 276 278
255 248 243 241 237 233 230 233 241 245 246 250 256 260 266 268 261 256 260 269 278 282 282 285 291 295 296 297 298 299 298 295 295 296 296 293 291 292 292 292 292 290 289 291 293 292 294 297 295 294 296 296 294 293 292 292 290 287 284 283 281 278 275 272 271 271 272 273 274 276 277 278 280 281
254 248 245 242 236 231 230 235 242 244 246 252 257 262 269 267 254 249 258 270 277 279 282 288 294 296 297 298 298 297 295 294 294 293 291 291 293 294 293 292 292 291 290 291 292 294 298 301 298 296 296 296 295 294 292 290 288 284 282 281 280 279 279 279 279 279 279 279 280 281 281 282 281 280
251 248 247 242 235 231 231 236 240 243 249 257 262 266 269 261 249 249 260 270 275 281 288 294 296 296 297 296 295 296 297 297 297 294 292 294 295 294 292 293 294 294 294 294 294 296 299 300 299 298 298 296 295 293 291 290 288 286 285 285 285 286 286 286 285 283 282 281 281 281 280 279 276 273
246 246 247 244 237 234 235 240 246 249 252 258 263 267 265 257 254 261 269 275 281 287 293 295 296 296 296 294 294 296 297 297 295 292 291 293 293 290 290 294 297 298 298 297 296 295 296 299 300 302 302 300 297 295 295 296 295 295 296 296 295 294 292 290 287 284 283 281 279 277 275 272 269 268
244 243 245 244 239 235 239 248 255 254 252 255 259 261 260 260 265 273 278 282 287 291 294 296 297 298 295 293 293 295 295 293 289 286 285 287 288 290 292 296 300 300 298 299 299 299 300 302 303 305 305 303 301 301 301 301 301 302 303 302 300 297 294 292 290 288 286 283 280 277 273 270 270 272
247 242 240 240 239 239 245 254 258 253 249 252 256 259 263 268 273 277 282 286 290 293 294 296 298 299 296 295 296 296 293 289 286 284 284 286 290 293 296 298 298 297 298 301 303 302 302 303 304 304 303 301 301 302 303 303 304 306 306 305 302 298 295 294 293 291 289 287 285 280 277 276 279 281
250 239 233 235 239 245 251 255 256 252 248 249 255 261 266 271 274 278 282 286 289 292 295 297 298 299 298 297 296 293 291 290 289 287 287 289 291 292 293 295 295 294 298 303 303 301 301 301 302 302 301 300 301 304 306 305 305 307 307 304 300 298 297 296 296 296 294 293 291 285 282 282 284 284
245 232 230 236 242 250 254 255 255 250 245 247 257 264 268 270 274 278 282 286 291 293 295 297 297 297 297 296 294 292 293 292 289 286 286 288 291 291 291 293 296 299 302 303 301 300 299 300 300 302 303 303 304 306 306 305 304 304 303 301 300 299 298 298 300 302 302 301 297 291 285 283 284 285
238 230 232 237 244 251 255 255 252 244 240 252 266 271 271 271 274 279 284 289 292 294 295 297 297 298 298 296 296 297 296 290 284 282 284 286 290 292 292 295 299 303 303 301 300 299 299 300 301 303 305 306 306 306 306 305 305 305 305 304 302 301 300 301 303 305 306 305 301 295 289 286 286 287
233 231 233 239 247 254 253 248 242 238 245 261 272 274 272 273 278 284 288 290 292 293 296 297 298 299 299 299 301 299 293 286 282 281 285 289 292 294 295 297 300 301 301 300 301 301 301 302 303 304 304 305 306 307 306 306 306 307 308 307 306 306 305 305 306 307 308 307 303 298 294 292 291 291
227 228 232 242 249 248 242 237 238 246 258 266 271 272 274 279 285 288 289 289 290 292 295 296 298 300 301 302 302 298 296 296 294 293 295 296 297 298 299 299 299 300 301 302 305 308 307 305 305 305 303 302 303 304 305 306 307 308 309 309 309 311 310 308 308 309 308 305 302 298 296 295 294 292
223 225 233 243 244 238 235 239 249 260 266 269 271 274 280 285 288 288 288 288 289 291 291 292 298 303 301 299 298 299 302 305 303 300 298 299 302 304 303 302 302 303 305 308 314 316 311 307 308 307 305 304 303 303 306 308 308 307 309 311 312 313 312 310 310 309 307 305 302 298 295 294 293 293
223 228 237 242 240 238 242 250 259 266 269 269 273 277 283 286 287 287 288 287 286 285 283 285 292 295 293 294 295 297 299 301 300 298 300 304 309 310 308 308 310 311 313 317 320 318 314 313 313 311 310 310 308 307 307 307 307 307 311 316 316 313 312 312 311 309 308 306 302 298 296 295 294 294
225 232 238 239 240 245 252 258 265 267 267 269 272 275 278 281 284 287 287 284 283 282 283 289 294 291 289 291 292 294 296 298 299 301 306 311 313 312 312 313 316 319 320 320 320 320 319 320 319 316 315 314 313 312 309 306 306 310 314 317 317 315 314 314 312 310 310 308 303 300 299 297 296 295
229 236 239 241 245 252 258 263 264 263 262 263 267 270 272 276 280 282 280 279 280 281 282 284 284 281 281 284 286 289 294 300 304 308 312 313 312 311 312 315 318 322 321 320 321 323 325 326 323 318 315 315 314 315 314 311 311 314 316 317 318 318 316 314 312 311 311 308 304 301 299 297 296 295
233 239 243 246 250 255 258 259 256 255 256 258 264 270 271 272 275 276 272 269 270 271 273 273 272 273 276 280 286 294 301 306 309 310 310 309 308 309 313 316 318 319 320 320 323 327 329 329 325 318 314 310 307 306 309 313 315 316 317 319 319 319 318 317 314 312 310 307 303 300 298 296 296 295
238 246 248 250 252 253 252 249 250 256 258 260 266 270 268 268 269 266 259 255 256 262 268 269 270 273 278 285 295 304 308 308 308 308 307 306 308 312 315 317 318 320 322 324 327 331 331 329 327 324 321 318 313 308 308 314 318 318 319 319 319 318 318 316 314 310 308 305 303 300 297 295 295 296
244 247 247 247 247 246 246 251 260 265 263 262 263 261 259 259 257 249 245 246 250 257 265 269 272 278 286 296 304 308 308 307 306 307 308 310 312 314 316 318 320 322 325 327 329 331 330 330 330 328 327 326 324 319 317 320 321 318 316 317 318 318 316 315 313 309 306 305 304 301 297 295 296 298
240 236 235 238 241 245 253 262 265 263 261 264 264 253 243 241 239 237 240 243 247 254 262 268 274 284 295 303 307 308 307 305 305 307 310 311 312 315 318 321 322 324 325 327 329 330 329 329 330 330 329 329 326 322 320 320 320 320 319 317 317 317 317 316 313 309 306 306 305 302 298 296 295 296
225 223 227 236 244 252 257 258 257 255 258 261 258 245 233 229 229 232 235 238 243 251 259 267 277 288 297 303 308 309 305 301 300 303 307 310 312 316 319 319 321 324 325 326 327 328 329 330 332 334 334 331 327 324 321 319 319 323 326 323 319 319 320 318 313 309 308 308 305 302 300 297 294 296
213 219 231 241 249 253 252 251 251 252 253 251 244 232 223 219 221 226 232 238 245 253 263 273 283 293 300 306 310 307 300 294 296 302 307 310 313 314 315 317 321 324 325 325 326 329 332 335 338 339 336 331 325 322 319 315 316 322 329 330 327 324 322 318 314 311 310 309 308 306 303 301 299 302
214 226 238 245 247 245 240 240 242 239 236 236 230 223 220 222 230 239 245 252 258 265 275 284 293 300 305 307 306 300 294 294 298 304 309 311 309 308 311 316 320 323 324 325 327 331 337 342 342 338 331 325 320 318 317 317 320 325 329 333 333 330 325 321 319 316 314 314 313 310 309 309 309 311
222 233 239 238 235 231 231 236 240 244 250 254 251 248 249 253 257 261 262 266 273 281 289 296 302 304 304 303 301 298 297 299 301 304 308 306 302 305 312 316 319 322 325 327 330 334 341 343 338 331 328 327 325 324 325 326 327 328 330 332 334 334 332 331 329 325 322 322 319 316 314 316 317 318
223 226 227 226 226 229 234 243 254 264 273 276 272 270 269 269 270 271 272 276 283 290 297 302 304 301 298 297 299 301 300 299 301 304 305 302 303 308 313 315 318 323 328 331 333 337 342 340 333 331 336 338 335 332 330 329 329 330 332 333 335 336 336 338 339 336 332 331 331 327 324 325 327 326
211 211 216 221 225 231 241 253 263 272 278 278 274 271 269 269 271 273 275 279 284 290 297 299 295 288 288 292 298 302 300 297 300 302 300 301 306 310 310 312 317 324 332 335 335 340 343 341 337 339 344 345 342 336 331 330 333 335 336 337 338 339 340 341 344 346 344 341 337 332 328 330 331 326
203 207 214 218 223 233 243 252 259 267 274 272 268 267 268 270 273 275 278 282 285 292 299 297 283 273 278 286 295 303 303 301 304 304 301 304 309 308 306 310 316 327 337 338 338 343 346 345 343 345 347 347 344 338 334 338 341 341 341 343 346 347 347 347 348 352 356 355 342 327 315 315 319 314
205 209 212 213 220 231 240 248 255 262 266 264 265 270 276 283 286 285 285 286 287 294 301 298 281 270 274 284 294 303 306 308 311 308 304 308 311 307 306 312 319 331 341 340 340 345 348 346 345 347 348 347 345 340 341 346 348 347 348 351 354 356 357 357 356 356 359 4 360 342 323 318 317 313